Volver al catálogo

ARIANE 42P+ DEB

LostHEO
NORAD 28279·DEBRIS·🇫🇷 France

Lanzado Oct 28, 1992 desde Guiana Space Centre

Loading…

Próximos Pases (próximas 24 horas)

TLE

ObsoletoSource: Space-Track

Época: Dec 3, 2023, 20:46 UTC

1 28279U 92072N   23337.86590150 -.00000291  00000-0 -14332-1 0  9998
2 28279   7.6758 249.5399 6463997 292.2789  13.6911  2.90303297211850

Sigue ARIANE 42P+ DEB en tiempo real con AllMySat

Download on the App Store